EW8511 Weather Reports


time (UTC)temp
C
wind
direction
speed
KPH
gust
KPH
rain 1hr
cm
rain 24hr
cm
rain mn
cm
humidity
%
barometer
mb
20260503224541 20 221 0.0 0.0 0.00 0.00 0.00 22 997.2
20260503223011 20 184 0.0 0.0 0.00 0.00 0.00 22 997.2
20260503221559 20 289 0.0 0.0 0.00 0.00 0.00 21 997.4
20260503220019 20 279 0.0 0.0 0.00 0.00 0.00 22 997.3
20260503214552 20 5 0.0 0.0 0.00 0.00 0.00 20 997.4
20260503213024 20 286 0.0 0.0 0.00 0.00 0.00 21 997.4
20260503211606 20 306 0.0 0.0 0.00 0.00 0.00 23 997.6
20260503210031 20 209 0.0 0.0 0.00 0.00 0.00 22 997.7
20260503204501 20 229 0.0 0.0 0.00 0.00 0.00 23 998.0
20260503203047 20 257 0.0 0.0 0.00 0.00 0.00 22 998.0
20260503201517 20 331 0.0 0.0 0.00 0.00 0.00 23 998.3
20260503200100 19 320 0.0 0.0 0.00 0.00 0.00 24 998.5
20260503194525 18 350 0.0 0.0 0.00 0.00 0.00 23 998.6
20260503193120 18 355 0.0 0.0 0.00 0.00 0.00 23 998.8
20260503191603 18 355 0.0 0.0 0.00 0.00 0.00 23 998.9
20260503190016 18 336 0.0 0.0 0.00 0.00 0.00 21 999.1
20260503184539 18 5 0.0 0.0 0.00 0.00 0.00 22 999.3
20260503183005 18 234 0.0 0.0 0.00 0.00 0.00 18 999.4
20260503181550 18 289 0.0 0.0 0.00 0.00 0.00 18 999.6
20260503180014 18 262 0.0 0.0 0.00 0.00 0.00 16 999.8
20260503174554 17 292 0.0 0.0 0.00 0.00 0.00 17 999.8
20260503173024 17 305 0.0 0.0 0.00 0.00 0.00 18 999.9
20260503171609 17 311 0.0 0.0 0.00 0.00 0.00 18 1000.0
20260503160106 16 314 0.0 0.0 0.00 0.00 0.00 40 1000.0
20260503130106 9 319 0.0 0.0 0.00 0.00 0.00 78 1000.2
20260503081531 6 53 0.0 0.0 0.00 0.00 0.00 80 1000.0
20260503080109 6 44 0.0 0.0 0.00 0.00 0.00 80 1000.1
20260503071522 8 42 0.0 0.0 0.00 0.00 0.00 75 1000.6
20260503060105 10 306 0.0 0.0 0.00 0.00 0.00 73 1001.8
20260503054557 10 306 0.0 0.0 0.00 0.00 0.00 74 1002.0
20260503053004 10 306 0.0 0.0 0.00 0.00 0.00 73 1002.2
20260503051539 10 306 0.0 0.0 0.00 0.00 0.00 73 1002.3
20260503050008 10 306 0.0 0.0 0.00 0.00 0.00 74 1002.4
20260503044546 10 306 0.0 0.0 0.00 0.00 0.00 76 1002.6
20260503043018 10 308 0.0 0.0 0.00 0.00 0.00 75 1002.7
20260503041553 11 228 0.0 0.0 0.00 0.00 0.00 72 1002.8
20260503040021 11 228 0.0 0.0 0.00 0.00 0.00 69 1002.9
20260503034558 12 230 0.0 0.0 0.00 0.00 0.00 63 1003.3
20260503033028 12 230 0.0 0.0 0.00 0.00 0.00 61 1003.4
20260503031607 12 230 0.0 0.0 0.00 0.00 0.00 59 1003.7
20260503030037 13 263 0.0 0.0 0.00 0.00 0.00 57 1004.0
20260503024504 13 290 0.0 0.0 0.00 0.00 0.00 54 1004.1
20260503023047 14 265 0.0 0.0 0.00 0.00 0.00 46 1003.8
20260503021512 15 233 0.0 0.0 0.00 0.00 0.00 45 1003.8
20260503020051 15 281 0.0 0.0 0.00 0.00 0.00 42 1003.7
20260503014521 15 269 0.0 0.0 0.00 0.00 0.00 42 1003.7
20260503013105 15 275 0.0 0.0 0.00 0.00 0.00 40 1003.6
20260503011529 15 306 0.0 0.0 0.00 0.00 0.00 39 1003.5
20260503010109 15 286 0.0 0.0 0.00 0.00 0.00 37 1003.5
20260503004540 15 217 0.0 0.0 0.00 0.00 0.00 37 1003.5
20260503003012 16 221 0.0 0.0 0.00 0.00 0.00 37 1003.5
20260503001553 16 223 0.0 0.0 0.00 0.00 0.00 36 1003.5
20260503000024 16 221 0.0 0.0 0.00 0.00 0.00 35 1003.6
20260502234557 16 207 0.0 0.0 0.00 0.00 0.00 34 1003.7
20260502233036 16 194 0.0 0.0 0.00 0.00 0.00 33 1003.8
20260502231607 16 278 0.0 0.0 0.00 0.00 0.00 33 1004.1
20260502230032 16 187 0.0 0.0 0.00 0.00 0.00 33 1004.2